TimeEST,TemperatureF,Dew PointF,Humidity,Sea Level PressureIn,VisibilityMPH,Wind Direction,Wind SpeedMPH,Gust SpeedMPH,PrecipitationIn,Events,Conditions,WindDirDegrees,DateUTC
12:07 AM,73.4,71.6,94,30.10,10.0,NE,9.2,-,N/A,,Overcast,40,2011-11-14 05:07:00
12:40 AM,73.4,71.6,94,30.09,10.0,NNE,9.2,-,N/A,,Overcast,30,2011-11-14 05:40:00
12:53 AM,73.9,71.1,91,30.09,10.0,NNE,9.2,-,N/A,,Mostly Cloudy,30,2011-11-14 05:53:00
1:20 AM,73.4,71.6,94,30.09,10.0,NNE,9.2,-,N/A,,Overcast,20,2011-11-14 06:20:00
1:41 AM,73.4,71.6,94,30.09,10.0,NNE,11.5,-,N/A,,Mostly Cloudy,30,2011-11-14 06:41:00
1:53 AM,73.9,71.1,91,30.08,10.0,NNE,9.2,-,N/A,,Mostly Cloudy,30,2011-11-14 06:53:00
2:53 AM,73.9,71.1,91,30.06,10.0,NE,8.1,-,N/A,,Mostly Cloudy,40,2011-11-14 07:53:00
3:53 AM,73.0,71.1,93,30.05,10.0,NE,10.4,-,N/A,,Partly Cloudy,40,2011-11-14 08:53:00
4:53 AM,73.9,72.0,93,30.05,10.0,NE,9.2,-,N/A,,Scattered Clouds,40,2011-11-14 09:53:00
5:53 AM,73.0,72.0,96,30.07,10.0,NNE,9.2,-,N/A,,Mostly Cloudy,30,2011-11-14 10:53:00
6:29 AM,73.4,71.6,94,30.08,10.0,NNE,9.2,-,N/A,,Mostly Cloudy,30,2011-11-14 11:29:00
6:53 AM,73.0,71.1,93,30.08,10.0,NNE,9.2,-,N/A,,Mostly Cloudy,20,2011-11-14 11:53:00
7:51 AM,73.4,71.6,94,30.09,9.0,NNE,10.4,-,N/A,,Overcast,30,2011-11-14 12:51:00
7:53 AM,73.9,72.0,93,30.09,9.0,NNE,9.2,-,N/A,,Overcast,30,2011-11-14 12:53:00
8:53 AM,75.0,73.0,94,30.10,9.0,NE,8.1,-,N/A,,Mostly Cloudy,40,2011-11-14 13:53:00
9:04 AM,75.2,73.4,94,30.10,9.0,NE,9.2,-,N/A,,Mostly Cloudy,40,2011-11-14 14:04:00
9:22 AM,77.0,73.4,89,30.11,10.0,NE,10.4,-,N/A,,Scattered Clouds,40,2011-11-14 14:22:00
9:53 AM,77.0,73.0,88,30.11,10.0,NE,12.7,-,N/A,,Partly Cloudy,50,2011-11-14 14:53:00
10:53 AM,79.0,73.0,82,30.09,10.0,NE,13.8,-,N/A,,Partly Cloudy,50,2011-11-14 15:53:00
11:25 AM,80.6,73.4,79,30.09,10.0,ENE,13.8,20.7,N/A,,Mostly Cloudy,60,2011-11-14 16:25:00
11:53 AM,82.9,73.9,74,30.07,10.0,East,11.5,20.7,N/A,,Scattered Clouds,80,2011-11-14 16:53:00
12:38 PM,82.4,73.4,74,30.05,10.0,East,13.8,21.9,N/A,,Mostly Cloudy,90,2011-11-14 17:38:00
12:53 PM,82.0,73.9,76,30.04,10.0,East,15.0,-,N/A,,Mostly Cloudy,80,2011-11-14 17:53:00
1:07 PM,82.4,75.2,79,30.04,10.0,East,15.0,20.7,N/A,,Scattered Clouds,80,2011-11-14 18:07:00
1:53 PM,82.9,75.0,77,30.01,10.0,East,13.8,-,N/A,,Partly Cloudy,90,2011-11-14 18:53:00
2:41 PM,82.4,75.2,79,30.01,10.0,East,10.4,17.3,N/A,,Mostly Cloudy,80,2011-11-14 19:41:00
2:53 PM,82.0,75.0,79,30.01,10.0,East,11.5,-,N/A,,Mostly Cloudy,80,2011-11-14 19:53:00
3:25 PM,80.6,75.2,84,30.00,10.0,East,10.4,-,N/A,,Mostly Cloudy,90,2011-11-14 20:25:00
3:53 PM,81.0,75.0,82,30.00,10.0,East,10.4,-,N/A,,Scattered Clouds,80,2011-11-14 20:53:00
4:53 PM,80.1,75.0,85,30.00,10.0,East,8.1,-,N/A,,Partly Cloudy,90,2011-11-14 21:53:00
5:53 PM,79.0,75.0,88,30.01,10.0,East,6.9,-,N/A,,Partly Cloudy,90,2011-11-14 22:53:00
6:53 PM,78.1,75.0,90,30.02,10.0,East,4.6,-,N/A,,Clear,80,2011-11-14 23:53:00
7:53 PM,78.1,75.0,90,30.03,10.0,ENE,6.9,-,N/A,,Clear,70,2011-11-15 00:53:00
8:53 PM,78.1,75.0,90,30.04,10.0,East,5.8,-,N/A,,Clear,80,2011-11-15 01:53:00
9:53 PM,78.1,75.0,90,30.04,10.0,East,4.6,-,N/A,,Clear,80,2011-11-15 02:53:00
10:53 PM,78.1,75.9,93,30.04,10.0,East,4.6,-,N/A,,Mostly Cloudy,80,2011-11-15 03:53:00
11:01 PM,78.8,75.2,89,30.04,10.0,East,4.6,-,N/A,,Scattered Clouds,80,2011-11-15 04:01:00
11:53 PM,78.1,75.0,90,30.03,10.0,East,4.6,-,N/A,,Clear,100,2011-11-15 04:53:00